Weather in Novocherkassk

Russia / Orenburg Oblast     51°32′17″N   56°14′02″E
temp.,
°C
wind,
m/s
gust,
m/s
humid.,
%
clouds,
%
prec.,
mm/h
press.,
hPa
HPBL,
m
4 march, thu
thu423:00−2sw4898100 1.4 1004311
02:00−3nw5896100 1.1 1004430
05:00−8wnw489697 1.2 1006173
08:00−9w499699 0.3 1007206
11:00−7w599397 0.4 1010400
14:00−6w61089100 0.0 1010647
17:00−6sw6118999 0.1 1011540
20:00−5sw8158991 0.0 1011733
5 march, fri
fri523:00−3sw9179095 0.1 1009888
02:00−2sw111888100 0.4 1008872
05:00−3sw91882100 0.5 1009652
08:00−4sw81885100 0.0 1010575
11:00−3sw91786100 0.0 1010682
14:00−1sw111888100 0.0 1008962
17:000sw111898100 1.4 10081059
20:00+1wsw91598100 0.4 1008787
6 march, sat
sat623:00+1wsw81498100 0.7 1010723
02:00+1wsw71298100 0.9 1010681
05:000w51095100 1.4 1012577
08:00−5nnw2394100 0.1 101330
11:00−5nnw239299 0.1 1014142
14:00−3wnw1189100 0.0 1014271
17:00−3ese0188100 0.0 1013226
20:00−4ene3497100 0.5 1012110
7 march, sun
sun723:00−4ene4796100 2.5 1010258
02:00−4nne4596100 2.1 1006168
05:00−6n5896100 3.7 1005246
08:00−7nnw5995100 1.8 1005381
11:00−7nw71093100 2.6 1007453
14:00−9nw71089100 0.2 1010470
17:00−12nw6108781 0.2 1013468
20:00−17wnw47920 0.0 1016102
8 march, mon
mon823:00−19wnw33930 0.0 101825
02:00−20sw11960 0.0 101820
05:00−19sse349111 0.0 101738
08:00−12s51286100 0.0 1016428
11:00−7ssw91684100 0.0 1014727
14:00−4sw101683100 0.0 10131164
17:00−3sw81483100 0.1 10131016
20:00−4ssw71582100 0.0 1013787